Flag for Saudi Arabia Weather past 2 weeks in Qatif, Saudi Arabia

Now
95 °F

Clear.


Feels Like: 101 °F
Forecast: 89 / 105 °F
Wind: 8 mph from South

Location: King Fahd International Airport

Current Time: Aug 28, 2014 at 10:13:01 AM

Latest Report: Aug 28, 2014 at 9:00 AM


Visibility: 4 mi

Pressure: 29.59 "Hg

Humidity: 44%

Dew point: 70 °F

Location of QatifLocation

Historic Weather in Qatif — Graph

°F

Qatif temperature yesterday

Maximum temperature yesterday: 111 °F (at 2:00 PM)
Minimum temperature yesterday: 86 °F (at 4:00 AM)
Average temperature yesterday: 96 °F

Past Weeks' High & Low Weather Summary

 TemperatureHumidityPressure
High115 °F (Aug 16, 12:00 PM)84% (Aug 20, 6:00 AM)29.71 "Hg (Aug 20, 6:00 AM)
Low84 °F (Aug 14, 1:00 AM)8% (Aug 22, 3:00 PM)29.39 "Hg (Aug 16, 2:00 PM)
Average97 °F45%29.55 "Hg
* Reported Aug 13 9:00 AM — Aug 28 9:00 AM, Qatif, Weather by CustomWeather, © 2014

Note: Actual official high and low records may vary slightly from our data, if they occured in-between our weather recording intervals... More about our weather records

Advertising

Qatif weather history for previous 24 hours

 ConditionsComfort  
Time TempWeatherWind HumidityBarometerVisibility
9:00 AM
Aug 28
95 °FClear.8 mph44%29.59 "Hg4 mi
8:00 AM91 °FClear.5 mph56%29.56 "Hg4 mi
7:00 AM90 °FClear.9 mph67%29.56 "Hg4 mi
6:00 AM88 °FHaze.9 mph70%29.53 "Hg3 mi
5:00 AM86 °FHaze.8 mph75%29.53 "Hg3 mi
4:00 AM88 °FClear.3 mph70%29.50 "Hg4 mi
3:00 AM88 °FClear.5 mph70%29.50 "Hg4 mi
2:00 AM90 °FClear.8 mph71%29.50 "Hg5 mi
1:00 AM90 °FClear.6 mph63%29.50 "Hg5 mi
12:00 AM91 °FClear.5 mph59%29.50 "Hg5 mi
11:00 PM
Aug 27
91 °FClear.5 mph59%29.53 "Hg5 mi
10:00 PM93 °FClear.3 mph59%29.53 "Hg5 mi
9:00 PM93 °FClear.3 mph59%29.53 "Hg5 mi
8:00 PM95 °FClear.7 mph56%29.53 "Hg5 mi
7:00 PM97 °FClear.13 mph53%29.50 "Hg5 mi
6:00 PM100 °FSunny.14 mph35%29.50 "Hg4 mi
5:00 PM104 °FSunny.15 mph35%29.50 "Hg5 mi
4:00 PM108 °FSunny.6 mph25%29.50 "Hg5 mi
3:00 PM109 °FSunny.8 mph18%29.50 "Hg5 mi
2:00 PM111 °FSunny.3 mph17%29.53 "Hg10 mi
1:00 PM109 °FSunny.3 mph18%29.56 "Hg10 mi
12:00 PM106 °FSunny.6 mph25%29.56 "Hg10 mi
11:00 AM104 °FSunny.6 mph28%29.59 "Hg10 mi
10:00 AM99 °FSunny.7 mph42%29.62 "Hg4 mi
Weather by CustomWeather, © 2014

See weather overviewHow to use our weather pages